GW0378 Weather Reports


time (UTC)temp
C
wind
direction
speed
KPH
gust
KPH
rain 1hr
cm
rain 24hr
cm
rain mn
cm
humidity
%
barometer
mb
20260508083449 8 115 4.8 8.0 0.00 0.00 0.00 76 1015.5
20260508082944 8 117 4.8 6.4 0.00 0.00 0.00 75 1015.2
20260508082442 8 118 6.4 8.0 0.00 0.00 0.00 74 1015.4
20260508081939 9 119 6.4 8.0 0.00 0.00 0.00 73 1015.4
20260508081436 8 96 8.0 9.7 0.00 0.00 0.00 74 1015.4
20260508080932 8 117 6.4 9.7 0.00 0.00 0.00 74 1015.4
20260508080431 9 72 4.8 8.0 0.00 0.00 0.00 73 1015.2
20260508075927 9 121 6.4 6.4 0.00 0.00 0.00 72 1015.2
20260508075424 9 109 4.8 8.0 0.00 0.00 0.00 72 1015.2
20260508074922 9 90 3.2 6.4 0.00 0.00 0.00 72 1015.2
20260508074419 10 101 4.8 6.4 0.00 0.00 0.00 70 1015.2
20260508073916 10 87 4.8 4.8 0.00 0.00 0.00 68 1015.1
20260508073414 11 105 3.2 3.2 0.00 0.00 0.00 66 1015.1
20260508072910 11 295 0.0 4.8 0.00 0.00 0.00 65 1015.4
20260508072406 10 82 1.6 3.2 0.00 0.00 0.00 67 1015.1
20260508071904 11 96 3.2 3.2 0.00 0.00 0.00 66 1015.2
20260508071402 11 117 1.6 3.2 0.00 0.00 0.00 66 1015.0
20260508070859 11 113 3.2 9.7 0.00 0.00 0.00 63 1015.0
20260508070357 11 102 6.4 14.5 0.00 0.00 0.00 62 1015.0
20260508065855 11 108 11.3 14.5 0.00 0.00 0.00 63 1015.1
20260508065353 11 74 9.7 11.3 0.00 0.00 0.00 63 1015.0
20260508064851 11 96 9.7 12.9 0.00 0.00 0.00 63 1015.0
20260508064348 11 105 9.7 14.5 0.00 0.00 0.00 62 1015.0
20260508063846 11 129 9.7 16.1 0.00 0.00 0.00 63 1015.1
20260508063343 11 94 8.0 11.3 0.00 0.00 0.00 63 1015.0
20260508062840 11 113 6.4 9.7 0.00 0.00 0.00 63 1014.9
20260508062337 11 95 9.7 9.7 0.00 0.00 0.00 63 1014.9
20260508061834 11 105 8.0 9.7 0.00 0.00 0.00 65 1015.0
20260508061332 10 105 8.0 8.0 0.00 0.00 0.00 66 1015.0
20260508060828 11 107 8.0 8.0 0.00 0.00 0.00 65 1015.1
20260508060326 11 101 6.4 8.0 0.00 0.00 0.00 64 1014.9
20260508055820 11 75 4.8 6.4 0.00 0.00 0.00 62 1015.0
20260508055319 11 73 4.8 6.4 0.00 0.00 0.00 61 1014.9
20260508054815 11 86 4.8 6.4 0.00 0.00 0.00 62 1014.9
20260508054313 11 105 4.8 6.4 0.00 0.00 0.00 61 1014.6
20260508053809 11 104 6.4 8.0 0.00 0.00 0.00 61 1014.8
20260508053307 11 94 3.2 8.0 0.00 0.00 0.00 61 1014.7
20260508052804 11 92 8.0 8.0 0.00 0.00 0.00 61 1014.5
20260508052301 12 105 4.8 6.4 0.00 0.00 0.00 60 1014.4
20260508051757 12 103 4.8 6.4 0.00 0.00 0.00 59 1014.5
20260508051252 12 99 4.8 4.8 0.00 0.00 0.00 59 1014.5
20260508050749 12 105 6.4 8.0 0.00 0.00 0.00 58 1014.5
20260508050246 12 105 6.4 6.4 0.00 0.00 0.00 57 1014.7
20260508045741 12 105 4.8 8.0 0.00 0.00 0.00 57 1014.6
20260508045240 12 102 4.8 8.0 0.00 0.00 0.00 57 1014.5
20260508044737 12 105 6.4 9.7 0.00 0.00 0.00 56 1014.5
20260508044234 12 103 3.2 4.8 0.00 0.00 0.00 57 1014.4
20260508043730 13 80 8.0 11.3 0.00 0.00 0.00 55 1014.2
20260508043228 13 170 3.2 8.0 0.00 0.00 0.00 56 1014.2
20260508042724 13 107 8.0 8.0 0.00 0.00 0.00 55 1014.1
20260508042221 13 93 4.8 6.4 0.00 0.00 0.00 56 1014.4
20260508041718 13 90 6.4 6.4 0.00 0.00 0.00 56 1014.4
20260508041215 13 93 4.8 6.4 0.00 0.00 0.00 55 1014.4
20260508040711 13 90 6.4 8.0 0.00 0.00 0.00 54 1014.1
20260508040208 13 112 4.8 8.0 0.00 0.00 0.00 54 1014.2
20260508035706 13 74 3.2 8.0 0.00 0.00 0.00 54 1014.0
20260508035203 13 99 4.8 8.0 0.00 0.00 0.00 54 1013.9
20260508034659 14 84 8.0 8.0 0.00 0.00 0.00 52 1013.9
20260508034156 15 106 6.4 8.0 0.00 0.00 0.00 52 1013.9
20260508033654 15 105 6.4 8.0 0.00 0.00 0.00 51 1013.9
20260508033152 15 148 3.2 6.4 0.00 0.00 0.00 48 1013.6
20260508032649 15 72 4.8 4.8 0.00 0.00 0.00 48 1013.7
20260508032146 16 81 0.0 1.6 0.00 0.00 0.00 46 1013.7
20260508031643 16 105 0.0 3.2 0.00 0.00 0.00 45 1013.2
20260508031139 16 174 0.0 1.6 0.00 0.00 0.00 45 1013.4
20260508030636 17 106 0.0 3.2 0.00 0.00 0.00 45 1013.2
20260508030134 17 159 3.2 4.8 0.00 0.00 0.00 43 1013.4
20260508025629 17 261 0.0 3.2 0.00 0.00 0.00 43 1013.4
20260508025127 18 209 1.6 3.2 0.00 0.00 0.00 40 1013.2
20260508024622 18 304 3.2 9.7 0.00 0.00 0.00 39 1013.1
20260508024120 19 296 4.8 11.3 0.00 0.00 0.00 37 1013.0
20260508023616 20 264 6.4 14.5 0.00 0.00 0.00 37 1013.2
20260508023114 20 274 8.0 19.3 0.00 0.00 0.00 36 1012.9
20260508022609 20 296 6.4 12.9 0.00 0.00 0.00 37 1013.4
20260508022107 20 280 11.3 17.7 0.00 0.00 0.00 36 1012.8
20260508021602 20 312 14.5 16.1 0.00 0.00 0.00 35 1012.8
20260508021058 20 282 14.5 14.5 0.00 0.00 0.00 35 1012.9
20260508020556 21 281 9.7 14.5 0.00 0.00 0.00 35 1012.9
20260508020054 21 281 6.4 12.9 0.00 0.00 0.00 34 1012.9
20260508015551 21 283 3.2 16.1 0.00 0.00 0.00 34 1012.5
20260508015048 21 289 11.3 14.5 0.00 0.00 0.00 33 1012.7
20260508014544 21 278 11.3 16.1 0.00 0.00 0.00 33 1012.8
20260508014040 21 249 8.0 17.7 0.00 0.00 0.00 32 1012.8
20260508013536 21 308 14.5 17.7 0.00 0.00 0.00 32 1012.9
20260508013034 22 290 3.2 14.5 0.00 0.00 0.00 32 1012.6
20260508012531 21 252 9.7 16.1 0.00 0.00 0.00 32 1012.5
20260508012028 21 277 11.3 19.3 0.00 0.00 0.00 31 1012.5
20260508011527 22 256 4.8 19.3 0.00 0.00 0.00 31 1012.5
20260508011024 22 282 6.4 17.7 0.00 0.00 0.00 32 1012.5
20260508010520 22 286 9.7 19.3 0.00 0.00 0.00 31 1012.6
20260508010018 22 265 6.4 9.7 0.00 0.00 0.00 31 1012.5
20260508005514 22 266 8.0 14.5 0.00 0.00 0.00 31 1012.5
20260508005011 22 294 12.9 19.3 0.00 0.00 0.00 31 1012.8
20260508004507 22 268 8.0 16.1 0.00 0.00 0.00 31 1012.6
20260508004004 21 279 12.9 17.7 0.00 0.00 0.00 31 1012.8
20260508003500 22 255 4.8 14.5 0.00 0.00 0.00 32 1012.7
20260508002958 22 275 6.4 14.5 0.00 0.00 0.00 32 1012.8
20260508002454 22 268 20.9 20.9 0.00 0.00 0.00 31 1012.8
20260508001950 22 315 6.4 11.3 0.00 0.00 0.00 32 1012.8
20260508001446 22 284 4.8 16.1 0.00 0.00 0.00 33 1012.8
20260508000943 22 259 4.8 16.1 0.00 0.00 0.00 33 1012.6
20260508000439 22 287 8.0 14.5 0.00 0.00 0.00 33 1012.9
20260507235936 22 312 6.4 16.1 0.00 0.00 0.00 33 1012.4
20260507235433 21 291 4.8 14.5 0.00 0.00 0.00 34 1012.7
20260507234931 22 291 4.8 14.5 0.00 0.00 0.00 34 1012.8
20260507234427 21 340 0.0 6.4 0.00 0.00 0.00 35 1012.8
20260507233923 21 353 6.4 8.0 0.00 0.00 0.00 36 1012.8
20260507233420 20 20 1.6 6.4 0.00 0.00 0.00 35 1013.0
20260507232919 20 348 0.0 6.4 0.00 0.00 0.00 37 1012.8
20260507232415 20 289 0.0 9.7 0.00 0.00 0.00 36 1012.9
20260507231912 20 275 6.4 11.3 0.00 0.00 0.00 36 1012.9
20260507231409 21 343 4.8 11.3 0.00 0.00 0.00 34 1012.9
20260507230905 21 328 6.4 11.3 0.00 0.00 0.00 34 1012.7
20260507230403 21 286 3.2 14.5 0.00 0.00 0.00 33 1012.8
20260507225903 22 355 4.8 11.3 0.00 0.00 0.00 33 1012.6
20260507225359 20 307 9.7 12.9 0.00 0.00 0.00 35 1012.8
20260507224855 20 339 3.2 8.0 0.00 0.00 0.00 34 1012.8
20260507224352 20 315 4.8 8.0 0.00 0.00 0.00 35 1013.0
20260507223848 21 292 9.7 14.5 0.00 0.00 0.00 33 1012.9
20260507223344 22 55 3.2 6.4 0.00 0.00 0.00 33 1013.1
20260507222841 21 341 4.8 9.7 0.00 0.00 0.00 35 1013.0
20260507222338 20 290 4.8 9.7 0.00 0.00 0.00 36 1013.1
20260507221835 21 252 4.8 14.5 0.00 0.00 0.00 36 1013.0
20260507221331 21 273 11.3 16.1 0.00 0.00 0.00 34 1012.9
20260507220827 21 304 4.8 9.7 0.00 0.00 0.00 34 1013.2
20260507220326 21 285 3.2 12.9 0.00 0.00 0.00 34 1013.1
20260507215822 21 350 9.7 14.5 0.00 0.00 0.00 34 1013.0
20260507215319 21 357 3.2 11.3 0.00 0.00 0.00 34 1013.2
20260507214816 21 277 4.8 12.9 0.00 0.00 0.00 36 1013.5
20260507214314 21 273 4.8 16.1 0.00 0.00 0.00 36 1013.4
20260507213808 21 277 9.7 11.3 0.00 0.00 0.00 36 1013.5
20260507213306 22 275 11.3 16.1 0.00 0.00 0.00 35 1013.4
20260507212802 21 288 9.7 16.1 0.00 0.00 0.00 35 1013.6
20260507212258 21 354 6.4 9.7 0.00 0.00 0.00 36 1013.6
20260507211755 20 326 8.0 11.3 0.00 0.00 0.00 38 1013.8
20260507211251 20 340 8.0 9.7 0.00 0.00 0.00 36 1013.7
20260507210748 21 319 3.2 11.3 0.00 0.00 0.00 36 1013.9
20260507210245 21 311 3.2 14.5 0.00 0.00 0.00 38 1013.5
20260507205742 20 283 3.2 9.7 0.00 0.00 0.00 38 1013.9
20260507205239 20 298 8.0 8.0 0.00 0.00 0.00 38 1013.8
20260507204735 20 278 3.2 8.0 0.00 0.00 0.00 38 1013.7
20260507204233 20 340 4.8 9.7 0.00 0.00 0.00 38 1014.0
20260507203730 21 300 4.8 16.1 0.00 0.00 0.00 38 1014.1
20260507203227 20 231 6.4 11.3 0.00 0.00 0.00 38 1013.9
20260507202724 20 247 6.4 8.0 0.00 0.00 0.00 40 1014.1
20260507202220 20 328 4.8 8.0 0.00 0.00 0.00 39 1014.0
20260507201714 20 232 8.0 8.0 0.00 0.00 0.00 40 1013.9
20260507201212 20 327 8.0 9.7 0.00 0.00 0.00 40 1014.2
20260507200708 21 252 6.4 16.1 0.00 0.00 0.00 39 1014.1
20260507200204 21 289 9.7 11.3 0.00 0.00 0.00 38 1014.1
20260507195701 21 20 4.8 6.4 0.00 0.00 0.00 40 1014.0
20260507195158 20 20 9.7 11.3 0.00 0.00 0.00 40 1014.2
20260507194655 20 240 8.0 14.5 0.00 0.00 0.00 41 1014.1
20260507194150 20 344 6.4 9.7 0.00 0.00 0.00 40 1014.4
20260507193647 19 6 4.8 11.3 0.00 0.00 0.00 41 1014.2
20260507193145 19 257 9.7 9.7 0.00 0.00 0.00 41 1014.2
20260507192641 19 283 6.4 17.7 0.00 0.00 0.00 39 1014.2
20260507192138 20 329 8.0 12.9 0.00 0.00 0.00 40 1014.2
20260507191633 20 353 0.0 4.8 0.00 0.00 0.00 40 1014.4
20260507191130 20 244 6.4 11.3 0.00 0.00 0.00 42 1014.2
20260507190628 20 278 4.8 4.8 0.00 0.00 0.00 41 1014.1
20260507190127 19 270 0.0 8.0 0.00 0.00 0.00 46 1014.2
20260507185624 18 200 1.6 12.9 0.00 0.00 0.00 42 1014.5
20260507185120 18 185 0.0 8.0 0.00 0.00 0.00 42 1014.5
20260507184619 19 242 8.0 8.0 0.00 0.00 0.00 41 1014.5
20260507184116 19 98 1.6 8.0 0.00 0.00 0.00 42 1014.5
20260507183612 18 329 8.0 8.0 0.00 0.00 0.00 43 1014.4
20260507183109 18 279 3.2 8.0 0.00 0.00 0.00 45 1014.4
20260507182605 18 290 4.8 6.4 0.00 0.00 0.00 43 1014.4
20260507182101 18 259 4.8 11.3 0.00 0.00 0.00 47 1014.5
20260507181559 18 68 3.2 8.0 0.00 0.00 0.00 44 1014.6
20260507181055 17 78 4.8 8.0 0.00 0.00 0.00 45 1014.7
20260507180551 17 53 3.2 4.8 0.00 0.00 0.00 44 1014.9
20260507180048 17 276 8.0 9.7 0.00 0.00 0.00 45 1015.0
20260507175544 18 294 4.8 12.9 0.00 0.00 0.00 44 1014.7
20260507175042 17 261 3.2 9.7 0.00 0.00 0.00 45 1014.7
20260507174539 17 274 8.0 11.3 0.00 0.00 0.00 45 1014.8
20260507174037 17 250 6.4 12.9 0.00 0.00 0.00 46 1014.9
20260507173533 17 358 6.4 12.9 0.00 0.00 0.00 46 1014.8
20260507173031 17 300 4.8 12.9 0.00 0.00 0.00 46 1014.9
20260507172526 17 289 4.8 12.9 0.00 0.00 0.00 45 1015.4
20260507172024 17 320 8.0 8.0 0.00 0.00 0.00 47 1015.2
20260507171519 17 358 6.4 9.7 0.00 0.00 0.00 45 1015.1
20260507171017 17 284 9.7 16.1 0.00 0.00 0.00 46 1015.4
20260507170513 16 321 4.8 9.7 0.00 0.00 0.00 47 1015.5
20260507170010 17 285 6.4 12.9 0.00 0.00 0.00 46 1015.4
20260507165506 17 326 4.8 9.7 0.00 0.00 0.00 48 1015.4
20260507165003 16 306 4.8 9.7 0.00 0.00 0.00 48 1015.4
20260507164459 16 256 8.0 12.9 0.00 0.00 0.00 48 1015.4
20260507163955 16 288 9.7 14.5 0.00 0.00 0.00 48 1015.4
20260507163453 16 337 8.0 14.5 0.00 0.00 0.00 48 1015.1
20260507162950 17 300 4.8 9.7 0.00 0.00 0.00 45 1015.1
20260507162445 17 321 4.8 9.7 0.00 0.00 0.00 49 1014.9
20260507161943 16 286 0.0 8.0 0.00 0.00 0.00 50 1015.4
20260507161439 16 301 4.8 20.9 0.00 0.00 0.00 49 1015.2
20260507160936 17 309 11.3 14.5 0.00 0.00 0.00 47 1015.4
20260507160432 16 274 12.9 12.9 0.00 0.00 0.00 48 1015.1
20260507155927 16 270 3.2 11.3 0.00 0.00 0.00 48 1015.2
20260507155424 16 298 6.4 8.0 0.00 0.00 0.00 47 1015.4
20260507154921 16 282 4.8 11.3 0.00 0.00 0.00 47 1015.2
20260507154418 16 277 8.0 11.3 0.00 0.00 0.00 47 1015.2
20260507153915 16 279 9.7 11.3 0.00 0.00 0.00 47 1015.1
20260507153411 16 294 4.8 14.5 0.00 0.00 0.00 46 1015.0
20260507152908 16 265 6.4 8.0 0.00 0.00 0.00 47 1015.5
20260507152404 16 287 6.4 11.3 0.00 0.00 0.00 46 1015.2
20260507151900 16 301 6.4 9.7 0.00 0.00 0.00 45 1015.6
20260507151356 15 278 3.2 11.3 0.00 0.00 0.00 47 1015.4
20260507150854 15 278 6.4 11.3 0.00 0.00 0.00 47 1015.4
20260507150350 15 236 3.2 6.4 0.00 0.00 0.00 49 1015.5
20260507145846 15 270 0.0 3.2 0.00 0.00 0.00 51 1015.5
20260507145343 15 239 3.2 4.8 0.00 0.00 0.00 51 1015.6
20260507144840 15 220 3.2 6.4 0.00 0.00 0.00 50 1015.5
20260507144337 15 232 3.2 4.8 0.00 0.00 0.00 51 1015.2
20260507143834 15 241 4.8 4.8 0.00 0.00 0.00 51 1015.1
20260507143331 15 264 0.0 3.2 0.00 0.00 0.00 52 1015.0
20260507142827 15 258 0.0 4.8 0.00 0.00 0.00 51 1015.1
20260507142324 15 232 0.0 4.8 0.00 0.00 0.00 50 1015.0
20260507141820 15 174 1.6 3.2 0.00 0.00 0.00 49 1015.1
20260507141317 15 180 0.0 3.2 0.00 0.00 0.00 53 1015.0
20260507140814 15 277 4.8 4.8 0.00 0.00 0.00 49 1014.8
20260507140310 15 257 6.4 6.4 0.00 0.00 0.00 50 1014.9
20260507135808 15 188 0.0 4.8 0.00 0.00 0.00 51 1014.8
20260507135306 15 196 3.2 8.0 0.00 0.00 0.00 50 1014.8
20260507134802 14 229 4.8 11.3 0.00 0.00 0.00 52 1014.7
20260507134258 13 283 1.6 12.9 0.00 0.00 0.00 53 1014.5
20260507133754 13 239 8.0 11.3 0.00 0.00 0.00 52 1014.6
20260507133250 13 199 4.8 11.3 0.00 0.00 0.00 53 1014.6
20260507132748 13 283 1.6 6.4 0.00 0.00 0.00 53 1014.7
20260507132245 13 254 8.0 12.9 0.00 0.00 0.00 54 1014.4
20260507131742 13 212 0.0 8.0 0.00 0.00 0.00 56 1014.5
20260507131239 12 240 3.2 8.0 0.00 0.00 0.00 59 1014.1
20260507130735 11 110 3.2 4.8 0.00 0.00 0.00 66 1014.4
20260507130233 10 93 6.4 8.0 0.00 0.00 0.00 70 1014.1
20260507125732 9 103 6.4 6.4 0.00 0.00 0.00 72 1014.4
20260507125229 9 104 4.8 8.0 0.00 0.00 0.00 71 1014.5
20260507124726 9 119 6.4 6.4 0.00 0.00 0.00 73 1014.4
20260507124222 9 110 4.8 8.0 0.00 0.00 0.00 72 1014.2
20260507123721 9 113 4.8 6.4 0.00 0.00 0.00 72 1014.2
20260507123218 9 114 6.4 6.4 0.00 0.00 0.00 71 1014.1
20260507122713 10 105 9.7 11.3 0.00 0.00 0.00 68 1014.1
20260507122209 11 102 8.0 9.7 0.00 0.00 0.00 65 1013.9
20260507121705 9 64 9.7 9.7 0.00 0.00 0.00 69 1014.0
20260507121201 10 108 6.4 12.9 0.00 0.00 0.00 69 1014.1
20260507120657 10 94 8.0 9.7 0.00 0.00 0.00 69 1013.9
20260507120154 9 96 8.0 9.7 0.00 0.00 0.00 70 1013.7
20260507115651 9 107 6.4 8.0 0.00 0.00 0.00 71 1013.9
20260507115146 9 110 8.0 11.3 0.00 0.00 0.00 70 1013.8
20260507114643 10 78 4.8 4.8 0.00 0.00 0.00 67 1013.7
20260507114140 10 96 0.0 6.4 0.00 0.00 0.00 68 1013.8
20260507113637 10 108 8.0 11.3 0.00 0.00 0.00 66 1013.8
20260507113133 10 117 9.7 9.7 0.00 0.00 0.00 65 1013.8
20260507112632 10 98 3.2 8.0 0.00 0.00 0.00 67 1013.8
20260507112128 10 99 6.4 6.4 0.00 0.00 0.00 66 1013.8
20260507111626 10 120 1.6 4.8 0.00 0.00 0.00 68 1013.6
20260507111122 10 99 4.8 6.4 0.00 0.00 0.00 67 1013.6
20260507110618 10 97 4.8 8.0 0.00 0.00 0.00 68 1013.5
20260507110115 11 109 6.4 6.4 0.00 0.00 0.00 64 1013.2
20260507105612 10 108 4.8 4.8 0.00 0.00 0.00 67 1013.5
20260507105108 10 117 3.2 4.8 0.00 0.00 0.00 67 1013.6
20260507104606 11 120 4.8 8.0 0.00 0.00 0.00 65 1013.1
20260507104102 12 59 8.0 9.7 0.00 0.00 0.00 62 1013.4
20260507103558 13 345 3.2 6.4 0.00 0.00 0.00 56 1013.0
20260507103055 13 85 3.2 4.8 0.00 0.00 0.00 53 1013.0
20260507102551 13 208 8.0 8.0 0.00 0.00 0.00 52 1013.0
20260507102047 12 246 3.2 9.7 0.00 0.00 0.00 60 1012.8
20260507101543 12 103 8.0 8.0 0.00 0.00 0.00 63 1013.1
20260507101039 12 96 4.8 8.0 0.00 0.00 0.00 61 1013.1
20260507100537 13 28 3.2 4.8 0.00 0.00 0.00 57 1013.0
20260507100035 13 117 0.0 3.2 0.00 0.00 0.00 57 1013.2
20260507095533 15 195 0.0 6.4 0.00 0.00 0.00 54 1013.0
20260507095029 15 197 3.2 9.7 0.00 0.00 0.00 53 1012.8
20260507094525 15 278 6.4 9.7 0.00 0.00 0.00 52 1012.7
20260507094022 15 212 4.8 4.8 0.00 0.00 0.00 54 1012.9
20260507093520 15 236 8.0 12.9 0.00 0.00 0.00 54 1012.6
20260507093018 14 154 3.2 6.4 0.00 0.00 0.00 57 1012.6
20260507092514 13 254 3.2 8.0 0.00 0.00 0.00 60 1012.6
20260507092011 12 104 4.8 4.8 0.00 0.00 0.00 63 1012.8
20260507091508 12 90 0.0 4.8 0.00 0.00 0.00 64 1012.7
20260507091003 11 101 4.8 6.4 0.00 0.00 0.00 66 1012.8
20260507090459 12 90 4.8 8.0 0.00 0.00 0.00 65 1012.7
20260507085956 12 106 6.4 8.0 0.00 0.00 0.00 65 1012.8
20260507085454 12 103 6.4 6.4 0.00 0.00 0.00 65 1012.7
20260507084950 12 107 4.8 4.8 0.00 0.00 0.00 64 1012.7
20260507084447 12 100 6.4 6.4 0.00 0.00 0.00 62 1012.7
20260507083944 12 100 3.2 4.8 0.00 0.00 0.00 62 1012.8